When you browse on this site, cookies collect data to enhance your experience and personalize the content and advertising you see.
Visit our Privacy Policy to learn more. By continuing to use the site, you agree to this use of cookies and data.
  • en Suisse
  • Liste des pays
  • À 7 jours
  • Température de l'eau
  • Carte météo
  • Widgets météo
  • user-avatar
    Se connecter

    Météo par heure à Sherpur

    Ce jour, 17 Octobre, Jeudi

    Heure Température Précipitation Vent Pression Humidité
    00:00 +14°C° 0 mm 0 m/s 612 mmHg 48%
    01:00 +14°C° 0 mm 0 m/s 612 mmHg 51%
    02:00 +13°C° 0 mm 0 m/s 612 mmHg 54%
    03:00 +13°C° 0.2 mm 0 m/s 611 mmHg 57%
    04:00 +12°C° 0.2 mm 0 m/s 611 mmHg 60%
    05:00 +12°C° 0.2 mm 0 m/s 611 mmHg 63%
    06:00 +13°C° 0.1 mm 0 m/s 612 mmHg 59%
    07:00 +14°C° 0.1 mm 0 m/s 612 mmHg 55%
    08:00 +15°C° 0.1 mm 0 m/s 613 mmHg 51%
    09:00 +16°C° 0 mm 0 m/s 613 mmHg 47%
    10:00 +19°C° 0 mm 1 m/s 613 mmHg 43%
    11:00 +20°C° 0 mm 1 m/s 614 mmHg 40%
    12:00 +20°C° 0 mm 1 m/s 613 mmHg 36%
    13:00 +21°C° 0 mm 1 m/s 613 mmHg 32%
    14:00 +22°C° 0 mm 1 m/s 613 mmHg 28%
    15:00 +21°C° 0 mm 2 m/s 613 mmHg 28%
    16:00 +20°C° 0 mm 2 m/s 613 mmHg 28%
    17:00 +20°C° 0 mm 3 m/s 613 mmHg 29%
    18:00 +19°C° 0.3 mm 3 m/s 613 mmHg 36%
    19:00 +17°C° 0.3 mm 3 m/s 613 mmHg 43%
    20:00 +16°C° 0.3 mm 3 m/s 613 mmHg 50%
    21:00 +15°C° 0 mm 2 m/s 613 mmHg 51%
    22:00 +15°C° 0 mm 1 m/s 613 mmHg 52%
    23:00 +14°C° 0 mm 1 m/s 613 mmHg 52%

    Demain, 18 Octobre, Vendredi

    Heure Température Précipitation Vent Pression Humidité
    00:00 +14°C° 0 mm 1 m/s 613 mmHg 53%
    01:00 +13°C° 0 mm 0 m/s 612 mmHg 53%
    02:00 +13°C° 0 mm 0 m/s 612 mmHg 53%
    03:00 +12°C° 0 mm 0 m/s 612 mmHg 54%
    04:00 +12°C° 0 mm 0 m/s 612 mmHg 54%
    05:00 +12°C° 0 mm 0 m/s 611 mmHg 54%
    06:00 +12°C° 0 mm 0 m/s 612 mmHg 51%
    07:00 +13°C° 0 mm 0 m/s 612 mmHg 47%
    08:00 +13°C° 0 mm 0 m/s 613 mmHg 44%
    09:00 +15°C° 0 mm 1 m/s 613 mmHg 40%
    10:00 +16°C° 0 mm 1 m/s 614 mmHg 37%
    11:00 +18°C° 0 mm 1 m/s 614 mmHg 33%
    12:00 +19°C° 0.1 mm 1 m/s 614 mmHg 32%
    13:00 +18°C° 0.1 mm 2 m/s 613 mmHg 30%
    14:00 +19°C° 0.1 mm 2 m/s 613 mmHg 29%
    15:00 +18°C° 0.1 mm 2 m/s 613 mmHg 32%
    16:00 +18°C° 0.1 mm 3 m/s 613 mmHg 36%
    17:00 +17°C° 0.1 mm 3 m/s 613 mmHg 39%
    18:00 +16°C° 0.1 mm 3 m/s 613 mmHg 42%
    19:00 +16°C° 0.1 mm 2 m/s 613 mmHg 45%
    20:00 +15°C° 0.1 mm 1 m/s 613 mmHg 48%
    21:00 +14°C° 0 mm 1 m/s 613 mmHg 50%
    22:00 +14°C° 0 mm 1 m/s 612 mmHg 52%
    23:00 +13°C° 0 mm 0 m/s 612 mmHg 54%

    Après-demain, 19 Octobre, Samedi

    Heure Température Précipitation Vent Pression Humidité
    00:00 +12°C° 0 mm 0 m/s 612 mmHg 55%
    01:00 +12°C° 0 mm 0 m/s 612 mmHg 56%
    02:00 +12°C° 0 mm 0 m/s 611 mmHg 57%
    03:00 +11°C° 0 mm 0 m/s 611 mmHg 58%
    04:00 +11°C° 0 mm 0 m/s 611 mmHg 59%
    05:00 +10°C° 0 mm 0 m/s 611 mmHg 60%
    06:00 +11°C° 0 mm 0 m/s 612 mmHg 57%
    07:00 +12°C° 0 mm 0 m/s 612 mmHg 53%
    08:00 +13°C° 0 mm 0 m/s 613 mmHg 50%
    09:00 +14°C° 0 mm 0 m/s 613 mmHg 46%
    10:00 +16°C° 0 mm 1 m/s 613 mmHg 42%
    11:00 +18°C° 0 mm 1 m/s 614 mmHg 39%
    12:00 +18°C° 0.1 mm 1 m/s 614 mmHg 36%
    13:00 +19°C° 0.1 mm 1 m/s 613 mmHg 33%
    14:00 +19°C° 0.1 mm 1 m/s 613 mmHg 30%
    15:00 +18°C° 0.1 mm 2 m/s 613 mmHg 31%
    16:00 +18°C° 0.1 mm 2 m/s 613 mmHg 31%
    17:00 +18°C° 0.1 mm 2 m/s 613 mmHg 31%
    18:00 +17°C° 0 mm 2 m/s 613 mmHg 36%
    19:00 +17°C° 0 mm 2 m/s 613 mmHg 41%
    20:00 +16°C° 0 mm 1 m/s 613 mmHg 46%
    21:00 +15°C° 0 mm 1 m/s 613 mmHg 48%
    22:00 +15°C° 0 mm 1 m/s 613 mmHg 49%
    23:00 +14°C° 0 mm 0 m/s 613 mmHg 51%

    20 Octobre, Dimanche

    Heure Température Précipitation Vent Pression Humidité
    00:00 +13°C° 0 mm 0 m/s 613 mmHg 52%
    01:00 +13°C° 0 mm 0 m/s 612 mmHg 54%
    02:00 +12°C° 0 mm 0 m/s 612 mmHg 56%
    03:00 +12°C° 0 mm 0 m/s 612 mmHg 57%
    04:00 +11°C° 0 mm 0 m/s 611 mmHg 58%
    05:00 +11°C° 0 mm 0 m/s 611 mmHg 60%
    06:00 +12°C° 0 mm 0 m/s 612 mmHg 55%
    07:00 +13°C° 0 mm 0 m/s 612 mmHg 50%
    08:00 +14°C° 0 mm 0 m/s 613 mmHg 45%
    09:00 +15°C° 0 mm 0 m/s 613 mmHg 42%
    10:00 +18°C° 0 mm 1 m/s 614 mmHg 39%
    11:00 +19°C° 0 mm 1 m/s 614 mmHg 35%
    12:00 +19°C° 0.1 mm 1 m/s 614 mmHg 33%
    13:00 +20°C° 0.1 mm 1 m/s 613 mmHg 30%
    14:00 +20°C° 0.1 mm 1 m/s 613 mmHg 28%
    15:00 +20°C° 0.1 mm 1 m/s 613 mmHg 29%
    16:00 +19°C° 0.1 mm 1 m/s 613 mmHg 30%
    17:00 +19°C° 0.1 mm 1 m/s 613 mmHg 31%
    18:00 +18°C° 0.3 mm 1 m/s 613 mmHg 35%
    19:00 +16°C° 0.3 mm 2 m/s 613 mmHg 39%
    20:00 +16°C° 0.3 mm 2 m/s 613 mmHg 43%
    21:00 +15°C° 0 mm 1 m/s 613 mmHg 45%
    22:00 +15°C° 0 mm 1 m/s 613 mmHg 48%
    23:00 +13°C° 0 mm 0 m/s 613 mmHg 50%

    21 Octobre, Lundi

    Heure Température Précipitation Vent Pression Humidité
    00:00 +13°C° 0 mm 0 m/s 612 mmHg 51%
    01:00 +12°C° 0 mm 0 m/s 612 mmHg 53%
    02:00 +12°C° 0 mm 0 m/s 612 mmHg 54%
    03:00 +11°C° 0 mm 0 m/s 611 mmHg 54%
    04:00 +12°C° 0 mm 1 m/s 611 mmHg 54%
    05:00 +12°C° 0 mm 1 m/s 611 mmHg 54%
    06:00 +12°C° 0 mm 1 m/s 612 mmHg 50%
    07:00 +13°C° 0 mm 1 m/s 612 mmHg 47%
    08:00 +14°C° 0 mm 1 m/s 613 mmHg 43%
    09:00 +15°C° 0 mm 1 m/s 613 mmHg 39%
    10:00 +16°C° 0 mm 1 m/s 613 mmHg 35%
    11:00 +18°C° 0 mm 1 m/s 613 mmHg 31%
    12:00 +19°C° 0 mm 1 m/s 613 mmHg 28%
    13:00 +20°C° 0 mm 1 m/s 613 mmHg 25%
    14:00 +20°C° 0 mm 1 m/s 613 mmHg 23%
    15:00 +20°C° 0 mm 1 m/s 612 mmHg 23%
    16:00 +19°C° 0 mm 2 m/s 612 mmHg 23%
    17:00 +19°C° 0 mm 2 m/s 612 mmHg 23%
    18:00 +18°C° 0 mm 2 m/s 612 mmHg 25%
    19:00 +17°C° 0 mm 2 m/s 612 mmHg 27%
    20:00 +16°C° 0 mm 2 m/s 612 mmHg 30%
    21:00 +15°C° 0 mm 1 m/s 612 mmHg 31%
    22:00 +14°C° 0 mm 1 m/s 611 mmHg 32%
    23:00 +14°C° 0 mm 1 m/s 611 mmHg 33%

    22 Octobre, Mardi

    Heure Température Précipitation Vent Pression Humidité
    00:00 +13°C° 0 mm 1 m/s 611 mmHg 34%
    01:00 +13°C° 0 mm 1 m/s 611 mmHg 35%
    02:00 +11°C° 0 mm 0 m/s 610 mmHg 35%
    03:00 +11°C° 0 mm 0 m/s 610 mmHg 36%
    04:00 +10°C° 0 mm 0 m/s 610 mmHg 37%
    05:00 +10°C° 0 mm 0 m/s 609 mmHg 37%
    06:00 +11°C° 0 mm 0 m/s 610 mmHg 35%
    07:00 +12°C° 0 mm 0 m/s 611 mmHg 33%
    08:00 +13°C° 0 mm 0 m/s 611 mmHg 30%
    09:00 +14°C° 0 mm 0 m/s 612 mmHg 28%
    10:00 +14°C° 0 mm 0 m/s 612 mmHg 26%
    11:00 +16°C° 0 mm 1 m/s 612 mmHg 24%
    12:00 +18°C° 0 mm 1 m/s 612 mmHg 23%
    13:00 +18°C° 0 mm 1 m/s 611 mmHg 23%
    14:00 +19°C° 0 mm 1 m/s 611 mmHg 22%
    15:00 +17°C° 0 mm 2 m/s 611 mmHg 25%
    16:00 +17°C° 0 mm 2 m/s 611 mmHg 28%
    17:00 +17°C° 0 mm 3 m/s 611 mmHg 31%
    18:00 +16°C° 0 mm 2 m/s 611 mmHg 34%
    19:00 +15°C° 0 mm 2 m/s 611 mmHg 38%
    20:00 +15°C° 0 mm 1 m/s 611 mmHg 42%
    21:00 +14°C° 0 mm 1 m/s 611 mmHg 43%
    22:00 +13°C° 0 mm 1 m/s 610 mmHg 44%
    23:00 +13°C° 0 mm 1 m/s 610 mmHg 46%
    Voir plus